Weather in Novooleksandrivka

Ukraine / Dnipropetrovsk Region     48°21′02″N   34°59′48″E
temp.,
°C
wind,
m/s
gust,
m/s
humid.,
%
clouds,
%
prec.,
mm/h
press.,
hPa
HPBL,
m
16 april, fri
fri1600:00+7s5991100 0.1 1013686
03:00+7ssw61091100 0.4 1013560
06:00+7ssw51091100 0.1 1014569
09:00+7ssw698998 0.1 1015561
12:00+10sw796652 0.2 10161267
15:00+12s895794 0.9 10151666
18:00+11ssw696146 1.6 10151386
21:00+6sw48845 2.6 1017184
17 april, sat
sat1700:00+4sw238546 0.1 101870
03:00+4ssw398675 0.1 1018254
06:00+5wsw5888100 0.1 1019607
09:00+7wsw797296 0.1 10201042
12:00+11w7105471 0.0 10201614
15:00+11w5858100 0.0 10201456
18:00+11wsw2459100 0.0 1020322
21:00+9s1165100 0.0 102110
18 april, sun
sun1800:00+8se227333 0.0 102022
03:00+5sse3384100 0.0 102038
06:00+5ssw338475 0.0 102035
09:00+10s455984 0.0 1019433
12:00+14sse334346 0.0 10181538
15:00+16sse333351 0.0 10171861
18:00+15ssw224097 0.0 1017959
21:00+12sse2256100 0.0 101745
19 april, mon
mon1900:00+9s237798 0.0 101754
03:00+8ese227885 0.0 101612
06:00+9ene3577100 0.1 1015140
09:00+8ne4890100 0.8 1015441
12:00+9ne5686100 0.1 1014514
15:00+10ne3486100 0.1 1012431
18:00+11ne3585100 0.0 1010432
21:00+10ene2594100 0.0 1009210
20 april, tue
tue2000:00+10ene4898100 0.8 1004329
03:00+10ese41099100 2.6 1000531
06:00+11sse4898100 0.9 998331
09:00+13s7118747 1.4 996871
12:00+11s81276100 0.2 9971559
15:00+9sse81283100 1.4 9961316
18:00+9wsw4893100 1.4 996653
21:00+8w91485100 1.6 10031210